Location: ?????????
(41.2393°N, 22.9479°E)
Time: 13:21:43
(UTC+00:00)

ARIANE 5 R/B - Visible Passes

Search period start: 14 February 2026 00:00
Search period end: 24 February 2026 00:00
Orbit: 746 x 793 km, 98.8° (Epoch: 13 February)

Date Brightness Start Highest point End Pass type
(mag) Time Alt. Az. Time Alt. Az. Time Alt. Az.
14 Feb 6.0 03:50:15 10° ENE 03:51:54 11° E 03:53:32 10° ESE visible
14 Feb 3.5 16:41:32 10° S 16:46:31 53° W 16:51:28 10° NNW visible
15 Feb 3.7 04:51:02 10° NNE 04:55:50 48° E 05:00:38 10° S visible
15 Feb 5.8 17:48:02 10° WSW 17:50:24 13° W 17:52:47 10° WNW visible
16 Feb 5.3 04:16:12 10° NE 04:20:01 22° E 04:23:50 10° SE visible
16 Feb 4.7 17:10:05 10° SSW 17:14:29 29° W 17:18:52 10° NW visible
17 Feb 3.1 16:33:42 10° S 16:38:44 64° WSW 16:43:46 10° NNW visible
18 Feb 4.1 04:43:22 10° NNE 04:48:03 40° E 04:52:43 10° SSE visible
18 Feb 5.6 17:39:30 10° SW 17:42:34 16° W 17:45:37 10° NW visible
19 Feb 5.6 04:08:46 10° NE 04:12:11 18° E 04:15:35 10° SE visible
19 Feb 4.4 17:02:04 10° SSW 17:06:41 34° W 17:11:16 10° NNW visible
21 Feb 4.5 04:35:44 10° NNE 04:40:14 33° E 04:44:43 10° SSE visible
21 Feb 5.4 17:31:10 10° SW 17:34:43 19° W 17:38:16 10° NW visible
22 Feb 5.8 04:01:28 10° NE 04:04:19 15° E 04:07:11 10° SE visible
22 Feb 4.0 16:54:07 10° S 16:58:52 41° W 17:03:37 10° NNW visible
